Regional Weather Roundup
Issued by NWS

Home | Current Version | Previous Version | Text Only | Print | Product List | Glossary Off
Versions: 1 2 3 4 5 6 7 8 9 10 11 12 13 14 15 16 17 18 19 20 21 22 23 24 25 26 27 28 29 30 31 32 33 34 35 36 37 38 39 40 41 42 43 44 45 46 47 48

000
ASUS45 KCYS 301010
RWRWY

WYOMING REGIONAL WEATHER ROUNDUP
NATIONAL WEATHER SERVICE CHEYENNE WY
300 AM MST FRI JAN 30 2015

NOTE:  "FAIR" INDICATES FEW OR NO CLOUDS BELOW 12,000 FEET
WITH NO SIGNIFICANT WEATHER AND/OR OBSTRUCTIONS TO VISIBILITY.

WYZ001-301100-
YELLOWSTONE NATIONAL PARK

CITY           SKY/WX    TMP DP  RH WIND       PRES   REMARKS
LK YELLOWSTONE   N/A      3  -1  83 CALM      30.30S
W YELLOWSTONE  NOT AVBL

$$
WYZ002>013-054>058-071-098>099-301100-
NORTHERN WYOMING

CITY           SKY/WX    TMP DP  RH WIND       PRES   REMARKS
JACKSON        FAIR      10   9  92 N8        30.30S WCI  -1
CODY           FAIR      25  25 100 CALM      30.22S
GREYBULL       FOG       23  23 100 SE3       30.25S VSB 1/4
WORLAND        FAIR      18  16  92 CALM      30.24F
SHERIDAN       FAIR      23  18  81 CALM      30.21F
BUFFALO        FAIR      35   4  27 NW5       30.21S WCI  31
GILLETTE       FAIR      26  22  84 SE6       30.20S WCI  19
HULETT           N/A    N/A N/A N/A MISG        N/A
NEWCASTLE      FAIR      28  19  69 CALM      30.24S

$$
WYZ014>020-022>026-101>103-301100-
CENTRAL WYOMING

CITY           SKY/WX    TMP DP  RH WIND       PRES   REMARKS
BIG PINEY      FAIR      19  16  88 CALM      30.26F
PINEDALE       PTSUNNY   16  12  86 W8        30.27S WCI   5
DUBOIS         FAIR      23   5  46 NW9       30.21F WCI  13
LANDER         FAIR      28  23  81 SE3       30.22S
RIVERTON       FAIR      28  25  88 NW7       30.24S WCI  21
CASPER         FAIR      31  25  78 SW12      30.22F WCI  22
DOUGLAS        FAIR      24  21  88 CALM      30.24S

$$
WYZ021-027>030-104>119-301100-
SOUTHERN WYOMING

CITY           SKY/WX    TMP DP  RH WIND       PRES   REMARKS
EVANSTON       CLOUDY    30  26  85 N3        30.24S
KEMMERER       CLOUDY    25  21  86 N8        30.25F WCI  16
FORT BRIDGER   CLOUDY    31  29  93 CALM      30.28S
ROCK SPRINGS   CLOUDY    29  26  89 SW6       30.24S WCI  23
DIXON          CLOUDY    30  27  90 CALM      30.29S
RAWLINS        FAIR      26  23  88 CALM      30.24F
SARATOGA       FAIR      28  25  86 MISG      30.25F
LARAMIE        FAIR      25  22  88 W3        30.23F
CHEYENNE       FAIR      26  20  77 W3        30.22F
TORRINGTON     FAIR      28  18  66 E8        30.24F WCI  20
PINE BLUFFS    FAIR      27  23  86 W7        30.26F WCI  19

$$


USA.gov is the U.S. government's official web portal to all federal, state and local government web resources and services.